Home   Weather   Dodoma   Past weeks

Flag for Tanzania Past Weather in Dodoma, Tanzania — Yesterday and Last 2 Weeks

Now
75 °F

Passing clouds.


Feels Like: 77 °F
Forecast: 64 / 85 °F
Wind: 7 mph from Southeast

Location: Dodoma Airport

Current Time: Apr 23, 2017 at 9:15:16 pm

Latest Report: Apr 23, 2017 at 7:00 pm


Visibility: N/A

Pressure: 30.04 "Hg (26.39 "Hg at 1125m altitude)

Humidity: 69%

Dew Point: 64 °F

Location of DodomaLocation

Past Weather in Dodoma — Graph

°F

Dodoma Temperature Yesterday

Maximum temperature yesterday: 81 °F (at 2:00 pm)
Minimum temperature yesterday: 66 °F (at 6:00 am)
Average temperature yesterday: 75 °F

High & Low Weather Summary for the Past Weeks

 TemperatureHumidityPressure
High86 °F (Apr 9, 3:00 pm)94% (Apr 9, 6:00 am)30.12 "Hg (Apr 9, 6:00 am)
Low66 °F (Apr 9, 6:00 am)40% (Apr 10, 4:00 pm)29.92 "Hg (Apr 10, 5:00 pm)
Average76 °F68%30.04 "Hg
* Reported Apr 8 8:00 pm — Apr 23 7:00 pm, Dodoma, Weather by CustomWeather, © 2017

Note: Actual official high and low records may vary slightly from our data, if they occured in-between our weather recording intervals... More about our weather records

Advertising

Dodoma Weather History for the Previous 24 Hours

Scroll right to see more
 ConditionsComfort  
Time TempWeatherWind HumidityBarometerVisibility
7:00 pm
Sun, Apr 23
75 °FPassing clouds.7 mph69%30.04 "HgN/A
6:00 pm77 °FPassing clouds.7 mph65%30.04 "HgN/A
5:00 pm79 °FPassing clouds.7 mph61%30.01 "HgN/A
4:00 pm79 °FScattered clouds.12 mph61%30.01 "HgN/A
3:00 pm79 °FScattered clouds.14 mph61%30.04 "HgN/A
2:00 pm77 °FPartly sunny.14 mph65%30.07 "HgN/A
1:00 pm81 °FPartly sunny.15 mph62%30.07 "HgN/A
12:00 pm79 °FScattered clouds.14 mph65%30.09 "HgN/A
11:00 am75 °FScattered clouds.13 mph69%30.12 "HgN/A
10:00 am75 °FScattered clouds.14 mph69%30.12 "HgN/A
9:00 am72 °FScattered clouds.12 mph83%30.12 "HgN/A
8:00 am68 °FPassing clouds.9 mph88%30.09 "HgN/A
7:00 am66 °FPassing clouds.6 mph94%30.07 "HgN/A
2:00 am68 °FPassing clouds.16 mph88%30.04 "HgN/A
11:00 pm
Sat, Apr 22
70 °FPassing clouds.10 mph83%30.07 "HgN/A
10:00 pm70 °FPassing clouds.9 mph88%30.07 "HgN/A
9:00 pm73 °FPassing clouds.14 mph74%30.07 "HgN/A
Weather by CustomWeather, © 2017

See weather overviewHow to use our weather pages